Latest Weather Observations for Goulburn Airport

IDN60801

Issued at 2:32 pm EST Wednesday 29 July 2015 (issued every 30 minutes, with the page automatically refreshed every 10 minutes)

About weather observations | Map of weather stations | Latest weather observations for NSW | Other Formats
Station Details ID: 070330 Name: GOULBURN AIRPORT AWS Lat: -34.81 Lon: 149.73 Height: 640.0 m
Data from the previous 72 hours. | See also: Recent months at Goulburn Airport
Date/Time
EST
Temp
°C
App
Temp
°C
Dew
Point
Rel
Hum
%
Delta-T
°C
Wind Press
QNH
hPa
Press
MSL
hPa
Rain
since 9 am
mm
Dir
 
Spd
km/h
Gust
km/h
Spd
kts
Gust
kts
29/02:30pm 12.5 6.9 0.0 42 5.3 NNW 19 24 10 13 1029.5 1030.8 0.2
29/02:00pm 12.6 8.3 1.0 45 5.0 NW 13 22 7 12 1030.1 1031.3 0.2
29/01:30pm 12.5 8.2 0.9 45 5.1 NW 13 22 7 12 1030.5 1031.8 0.2
29/01:00pm 11.9 7.4 -0.3 43 5.1 NNW 13 24 7 13 1031.1 1032.4 0.2
29/12:30pm 10.8 7.4 1.9 54 3.9 W 9 15 5 8 1031.8 1033.1 0.0
29/12:00pm 10.5 7.6 2.6 58 3.5 N 7 11 4 6 1032.4 1033.7 0.0
29/11:30am 9.4 7.2 3.4 66 2.7 NE 4 7 2 4 1032.9 1034.3 0.0
29/11:00am 7.1 4.5 4.4 83 1.2 SE 7 9 4 5 1033.6 1034.9 0.0
29/10:30am 5.1 3.4 3.8 91 0.6 S 2 9 1 5 1034.0 1035.3 0.0
29/10:00am 3.5 0.8 2.9 96 0.2 NE 6 7 3 4 1034.3 1035.7 0.0
29/09:52am 2.6 0.2 2.3 98 0.1 E 4 7 2 4 1034.3 1035.7 0.0
29/09:30am 1.4 -0.4 1.1 98 0.1 CALM 0 7 0 4 1034.5 1035.9 0.0
29/09:00am -1.0 -3.2 -1.3 98 0.1 CALM 0 0 0 0 1034.7 1036.1 0.0
29/08:30am -2.7 -5.1 -3.2 96 0.0 CALM 0 0 0 0 1034.6 1036.0 0.0
29/08:00am -3.3 -5.8 -4.0 95 0.1 CALM 0 0 0 0 1034.6 1036.0 0.0
29/07:30am -3.3 -5.8 -3.8 96 0.0 CALM 0 4 0 2 1034.5 1035.9 0.0
29/07:00am -3.1 -5.6 -3.6 96 0.0 CALM 0 0 0 0 1034.1 1035.4 0.0
29/06:30am -3.3 -5.8 -3.8 96 0.0 CALM 0 0 0 0 1033.7 1035.0 0.0
29/06:00am -3.6 -6.1 -4.3 95 0.1 CALM 0 0 0 0 1033.5 1034.8 0.0
29/05:30am -3.4 -5.9 -3.9 96 0.0 CALM 0 0 0 0 1033.3 1034.6 0.0
29/05:00am -3.4 -5.9 -3.9 96 0.0 CALM 0 0 0 0 1033.3 1034.6 0.0
29/04:30am -4.0 -7.0 -4.7 95 0.1 SSE 2 6 1 3 1033.3 1034.6 0.0
29/04:00am -4.3 -6.9 -5.0 95 0.0 CALM 0 0 0 0 1033.0 1034.4 0.0
29/03:30am -3.9 -6.5 -4.6 95 0.1 CALM 0 0 0 0 1032.9 1034.3 0.0
29/03:00am -3.9 -6.5 -4.6 95 0.1 CALM 0 0 0 0 1032.7 1034.0 0.0
29/02:30am -3.7 -6.2 -4.4 95 0.1 CALM 0 0 0 0 1033.1 1034.5 0.0
29/02:00am -3.1 -5.6 -3.8 95 0.1 CALM 0 0 0 0 1033.3 1034.6 0.0
29/01:35am -2.9 -5.4 -3.6 95 0.1 CALM 0 0 0 0 1033.1 1034.5 0.0
29/01:30am -3.1 -5.6 -3.9 94 0.1 CALM 0 0 0 0 1032.9 1034.3 0.0
29/01:00am -2.7 -5.1 -3.5 94 0.1 CALM 0 0 0 0 1033.3 1034.6 0.0
29/12:30am -2.0 -4.3 -2.7 95 0.2 CALM 0 0 0 0 1033.1 1034.5 0.0
29/12:00am -2.0 -4.4 -2.8 94 0.2 CALM 0 0 0 0 1033.0 1034.4 0.0
 
Date/Time
EST
Temp
°C
App
Temp
°C
Dew
Point
Rel
Hum
%
Delta-T
°C
Wind Press
QNH
hPa
Press
MSL
hPa
Rain
since 9 am
mm
Dir
 
Spd
km/h
Gust
km/h
Spd
kts
Gust
kts
28/11:30pm -1.4 -4.1 -2.2 94 0.2 N 2 7 1 4 1033.3 1034.6 0.0
28/11:00pm -0.9 -3.1 -1.6 95 0.2 CALM 0 0 0 0 1033.0 1034.4 0.0
28/10:30pm -1.1 -3.4 -2.2 92 0.3 CALM 0 0 0 0 1033.1 1034.5 0.0
28/10:00pm -0.6 -2.8 -1.9 91 0.4 CALM 0 0 0 0 1033.3 1034.6 0.0
28/09:30pm 0.4 -1.7 -0.7 92 0.4 CALM 0 0 0 0 1033.4 1034.7 0.0
28/09:00pm 0.3 -1.8 -1.0 91 0.5 CALM 0 6 0 3 1033.1 1034.5 0.0
28/08:30pm 1.2 -1.2 -0.6 88 0.7 NNE 2 6 1 3 1032.8 1034.1 0.0
28/08:00pm 2.4 0.4 0.1 85 0.9 CALM 0 0 0 0 1032.7 1034.0 0.0
28/07:30pm 3.7 1.9 1.4 85 0.9 CALM 0 6 0 3 1032.6 1033.9 0.0
28/07:00pm 3.7 0.7 0.9 82 1.1 N 6 7 3 4 1032.4 1033.7 0.0
28/06:30pm 5.1 0.2 1.9 80 1.3 WNW 17 19 9 10 1032.0 1033.3 0.0
28/06:00pm 5.0 0.0 1.5 78 1.4 WNW 17 19 9 10 1031.7 1033.0 0.0
28/05:30pm 6.3 1.4 1.8 73 1.9 WNW 17 19 9 10 1031.1 1032.4 0.0
28/05:00pm 8.1 3.2 1.9 65 2.6 WNW 17 19 9 10 1030.9 1032.2 0.0
28/04:30pm 9.8 4.6 2.4 60 3.3 WNW 19 22 10 12 1030.8 1032.1 0.0
28/04:00pm 11.1 6.3 2.4 55 3.9 W 17 22 9 12 1030.6 1031.9 0.0
28/03:30pm 11.7 7.1 1.6 50 4.5 WSW 15 20 8 11 1030.6 1031.9 0.0
28/03:00pm 11.6 7.0 1.3 49 4.5 WSW 15 22 8 12 1030.6 1031.9 0.0
28/02:30pm 12.2 7.3 1.8 49 4.6 WSW 17 24 9 13 1030.5 1031.8 0.0
28/02:00pm 11.8 6.5 1.7 50 4.4 W 19 30 10 16 1030.6 1031.9 0.0
28/01:30pm 11.0 5.6 2.6 56 3.8 WNW 20 28 11 15 1030.7 1032.0 0.0
28/01:00pm 10.3 4.9 2.7 59 3.4 WNW 20 28 11 15 1031.1 1032.4 0.0
28/12:30pm 10.2 5.4 2.8 60 3.3 W 17 26 9 14 1031.7 1033.0 0.0
28/12:00pm 9.3 4.1 3.3 66 2.7 WNW 20 24 11 13 1032.0 1033.3 0.0
28/11:30am 8.0 2.6 2.3 67 2.5 NW 20 28 11 15 1032.6 1033.9 0.0
28/11:00am 7.6 2.4 2.3 69 2.3 NW 19 22 10 12 1032.8 1034.1 0.0
28/10:30am 6.5 0.3 2.4 75 1.8 WNW 24 30 13 16 1033.1 1034.5 0.0
28/10:00am 5.7 0.3 2.5 80 1.3 WNW 20 26 11 14 1033.3 1034.6 0.0
28/09:45am 5.3 -0.5 2.5 82 1.2 WNW 22 26 12 14 1033.1 1034.5 0.0
28/09:30am 5.1 -0.3 2.6 84 1.1 W 20 26 11 14 1033.1 1034.5 0.0
28/09:13am 4.8 -0.5 3.0 88 0.8 WNW 20 28 11 15 1033.3 1034.6 0.0
28/09:00am 4.2 -1.6 2.2 87 0.8 W 22 28 12 15 1033.3 1034.6 0.0
28/08:30am 3.6 -1.3 2.3 91 0.5 W 17 22 9 12 1032.9 1034.3 0.0
28/08:24am 3.1 -1.8 1.8 91 0.5 W 17 22 9 12 1032.8 1034.1 0.0
28/08:00am 2.4 -1.8 1.4 93 0.4 WNW 13 20 7 11 1032.4 1033.7 0.0
28/07:30am 1.9 -3.2 0.9 93 0.4 WNW 17 20 9 11 1032.0 1033.3 0.0
28/07:00am 1.1 -2.9 0.4 95 0.3 WNW 11 13 6 7 1031.8 1033.1 0.0
28/06:30am 0.7 -3.4 -0.4 92 0.4 W 11 15 6 8 1031.3 1032.6 0.0
28/06:20am 1.2 -2.5 0.0 92 0.5 W 9 15 5 8 1031.1 1032.4 0.0
28/06:00am 1.4 -2.3 0.1 91 0.5 WNW 9 15 5 8 1031.1 1032.4 0.0
28/05:30am 2.4 -0.7 1.1 91 0.5 W 7 9 4 5 1030.8 1032.1 0.0
28/05:00am 2.7 -2.6 1.7 93 0.4 W 19 26 10 14 1030.6 1031.9 0.0
28/04:30am 1.8 -2.5 0.9 94 0.4 WNW 13 19 7 10 1030.3 1031.6 0.0
28/04:12am 1.3 -3.1 0.3 93 0.4 WNW 13 17 7 9 1030.0 1031.2 0.0
28/04:00am 1.2 -2.9 -0.1 91 0.5 WNW 11 15 6 8 1030.0 1031.2 0.0
28/03:30am 1.8 -3.3 0.6 92 0.5 WNW 17 26 9 14 1029.9 1031.1 0.0
28/03:22am 1.7 -3.4 0.5 92 0.5 WNW 17 20 9 11 1029.9 1031.1 0.0
28/03:00am 1.7 -3.5 0.2 90 0.6 WNW 17 22 9 12 1029.9 1031.1 0.0
28/02:30am 2.0 -3.1 0.5 90 0.6 W 17 22 9 12 1029.6 1030.9 0.0
28/02:25am 2.1 -2.6 0.6 90 0.6 WNW 15 22 8 12 1029.6 1030.9 0.0
28/02:00am 2.3 -3.2 0.8 90 0.6 W 19 28 10 15 1029.5 1030.8 0.0
28/01:30am 2.0 -3.5 0.4 89 0.6 W 19 26 10 14 1029.5 1030.8 0.0
28/01:00am 1.1 -3.4 -0.4 90 0.6 WNW 13 20 7 11 1029.4 1030.7 0.0
28/12:30am 1.7 -2.7 0.1 89 0.6 WNW 13 19 7 10 1029.5 1030.8 0.0
28/12:00am 1.8 -3.7 0.5 91 0.5 W 19 28 10 15 1029.4 1030.7 0.0
 
Date/Time
EST
Temp
°C
App
Temp
°C
Dew
Point
Rel
Hum
%
Delta-T
°C
Wind Press
QNH
hPa
Press
MSL
hPa
Rain
since 9 am
mm
Dir
 
Spd
km/h
Gust
km/h
Spd
kts
Gust
kts
27/11:30pm 1.0 -3.9 -0.5 90 0.6 W 15 20 8 11 1029.5 1030.8 0.0
27/11:00pm 0.8 -2.4 -0.5 91 0.5 WNW 6 15 3 8 1029.5 1030.8 0.0
27/10:30pm 1.0 -2.8 -0.8 88 0.7 WNW 9 15 5 8 1029.7 1031.0 0.0
27/10:00pm 1.0 -3.2 -0.9 87 0.7 N 11 15 6 8 1029.4 1030.7 0.0
27/09:30pm 1.8 -4.4 -0.1 87 0.7 W 22 28 12 15 1029.2 1030.5 0.0
27/09:00pm 1.8 -2.0 -0.6 84 0.9 NW 9 15 5 8 1029.4 1030.7 0.0
27/08:30pm 2.6 -3.9 0.2 84 0.9 WNW 24 37 13 20 1028.8 1030.0 0.0
27/08:00pm 2.6 -4.7 0.2 84 0.9 W 28 39 15 21 1028.3 1029.5 0.0
27/07:30pm 2.8 -5.4 0.2 83 1.0 W 33 44 18 24 1027.8 1029.1 0.0
27/07:00pm 2.3 -5.0 0.0 85 0.9 W 28 35 15 19 1027.7 1029.0 0.0
27/06:30pm 2.9 -4.8 0.1 82 1.1 WNW 30 39 16 21 1027.4 1028.6 0.0
27/06:00pm 3.2 -4.4 0.4 82 1.1 WNW 30 37 16 20 1027.2 1028.4 0.0
27/05:30pm 3.5 -4.7 0.4 80 1.2 W 33 43 18 23 1026.4 1027.7 0.0
27/05:00pm 4.1 -3.9 0.3 76 1.5 W 32 41 17 22 1026.2 1027.4 0.0
27/04:30pm 5.0 -3.2 0.4 72 1.8 W 33 44 18 24 1025.9 1027.1 0.0
27/04:15pm 5.2 -2.9 0.0 69 2.1 W 32 50 17 27 1025.8 1027.0 0.0
27/04:00pm 5.4 -3.2 0.2 69 2.1 WNW 35 50 19 27 1025.6 1026.8 0.0
27/03:30pm 5.7 -3.6 0.3 68 2.2 WNW 39 54 21 29 1025.1 1026.3 0.0
27/03:23pm 5.6 -3.0 0.0 67 2.2 WNW 35 54 19 29 1025.0 1026.1 0.0
27/03:00pm 5.8 -2.8 0.0 66 2.3 WNW 35 48 19 26 1024.7 1025.9 0.0
27/02:30pm 6.4 -1.8 0.1 64 2.5 WNW 33 43 18 23 1025.2 1026.4 0.0
27/02:00pm 6.5 -2.0 0.6 66 2.4 W 35 50 19 27 1025.1 1026.3 0.0
27/01:30pm 6.0 -2.6 -0.1 65 2.4 W 35 46 19 25 1025.1 1026.3 0.0
27/01:00pm 5.3 -4.2 -0.9 64 2.4 W 39 46 21 25 1025.0 1026.1 0.0
27/12:30pm 5.8 -3.3 -0.3 65 2.4 WNW 37 48 20 26 1025.1 1026.3 0.0
27/12:00pm 5.5 -4.3 -0.5 65 2.4 WNW 41 52 22 28 1025.3 1026.5 0.0
27/11:30am 5.5 -3.9 0.1 68 2.2 WNW 39 48 21 26 1025.6 1026.8 0.0
27/11:00am 5.0 -3.3 -0.6 67 2.2 W 33 44 18 24 1026.0 1027.2 0.0
27/10:30am 4.1 -4.1 -1.3 68 2.1 WNW 32 41 17 22 1026.0 1027.2 0.0
27/10:00am 3.3 -4.5 -0.7 75 1.5 W 30 43 16 23 1025.9 1027.1 0.0
27/09:30am 3.3 -3.7 -0.2 78 1.4 W 26 35 14 19 1025.8 1027.0 0.0
27/09:17am 2.8 -4.6 -0.6 78 1.3 W 28 43 15 23 1025.8 1027.0 0.0
27/09:00am 2.6 -4.4 -0.3 81 1.1 W 26 35 14 19 1025.5 1026.7 0.4
27/08:55am 2.4 -5.0 -0.9 79 1.2 W 28 35 15 19 1025.2 1026.4 0.4
27/08:30am 2.3 -5.1 -0.8 80 1.2 W 28 37 15 20 1024.9 1026.0 0.4
27/08:00am 1.7 -6.6 -1.4 80 1.1 WNW 32 50 17 27 1024.0 1025.2 0.4
27/07:30am 1.9 -4.1 -1.3 79 1.2 WNW 20 35 11 19 1024.1 1025.3 0.4
27/07:08am 1.4 -7.8 -1.7 80 1.1 WNW 37 48 20 26 1023.3 1024.4 0.4
27/07:00am 1.5 -8.1 -1.4 81 1.1 W 39 50 21 27 1023.1 1024.3 0.4
27/06:30am 1.8 -7.4 -1.1 81 1.1 W 37 48 20 26 1022.4 1023.6 0.4
27/06:00am 1.9 -6.3 -0.8 82 1.0 WNW 32 41 17 22 1022.1 1023.2 0.4
27/05:52am 2.0 -6.2 -0.7 82 1.0 WNW 32 41 17 22 1022.0 1023.1 0.4
27/05:30am 1.9 -4.4 -1.0 81 1.1 WNW 22 39 12 21 1021.8 1022.9 0.4
27/05:18am 2.0 -4.3 -0.9 81 1.1 WNW 22 32 12 17 1021.8 1022.9 0.4
27/05:02am 1.9 -5.9 -0.8 82 1.0 WNW 30 41 16 22 1021.6 1022.7 0.4
27/05:00am 1.6 -6.2 -1.0 83 1.0 WNW 30 41 16 22 1021.6 1022.7 0.4
27/04:54am 1.7 -6.5 -0.9 83 1.0 WNW 32 41 17 22 1021.3 1022.5 0.4
27/04:30am 1.8 -6.0 -0.9 82 1.0 NW 30 39 16 21 1021.1 1022.3 0.4
27/04:14am 2.1 -6.0 -0.5 83 1.0 WNW 32 46 17 25 1021.2 1022.4 0.4
27/04:00am 1.7 -7.4 -0.5 85 0.8 WNW 37 54 20 29 1021.0 1022.1 0.4
27/03:33am 1.8 -8.1 -0.6 84 0.9 WNW 41 59 22 32 1020.6 1021.7 0.4
27/03:30am 1.8 -8.5 -0.8 83 1.0 WNW 43 59 23 32 1020.5 1021.6 0.4
27/03:00am 2.0 -6.7 -0.4 84 0.9 WNW 35 54 19 29 1020.2 1021.3 0.4
27/02:54am 1.8 -6.5 -0.6 84 0.9 WNW 33 52 18 28 1020.2 1021.3 0.4
27/02:30am 1.9 -6.8 -0.5 84 0.9 WNW 35 48 19 26 1020.1 1021.2 0.4
27/02:00am 1.8 -6.3 -0.6 84 0.9 NW 32 44 17 24 1020.3 1021.4 0.4
27/01:42am 2.2 -6.1 -0.4 83 1.0 WNW 33 48 18 26 1020.5 1021.6 0.4
27/01:30am 2.5 -5.2 -0.4 81 1.1 WNW 30 43 16 23 1020.9 1022.0 0.4
27/01:24am 2.6 -3.6 -0.3 81 1.1 WNW 22 43 12 23 1021.1 1022.3 0.4
27/01:00am 2.5 -1.3 -0.4 81 1.1 NNE 9 13 5 7 1021.4 1022.6 0.4
27/12:44am 2.1 -1.7 -0.6 82 1.0 NW 9 19 5 10 1021.1 1022.3 0.4
27/12:37am 2.4 -1.7 -0.4 82 1.1 NW 11 20 6 11 1021.2 1022.4 0.4
27/12:30am 2.1 -2.4 -0.5 83 1.0 WNW 13 24 7 13 1021.1 1022.3 0.4
27/12:13am 2.5 -2.4 -0.3 82 1.1 WNW 15 26 8 14 1021.0 1022.1 0.4
27/12:00am 2.4 -1.7 -0.2 83 1.0 W 11 19 6 10 1021.4 1022.6 0.4
 
Date/Time
EST
Temp
°C
App
Temp
°C
Dew
Point
Rel
Hum
%
Delta-T
°C
Wind Press
QNH
hPa
Press
MSL
hPa
Rain
since 9 am
mm
Dir
 
Spd
km/h
Gust
km/h
Spd
kts
Gust
kts
26/11:30pm 2.8 -3.0 0.2 83 1.0 WNW 20 26 11 14 1021.3 1022.5 0.4
26/11:00pm 3.0 -4.2 0.6 84 0.9 WNW 28 41 15 22 1021.0 1022.1 0.4
26/10:30pm 2.9 -4.7 0.5 84 0.9 WNW 30 39 16 21 1020.9 1022.0 0.4
26/10:00pm 3.0 -3.9 0.4 83 1.0 WNW 26 37 14 20 1020.7 1021.8 0.4
26/09:30pm 3.2 -4.4 0.6 83 1.0 WNW 30 41 16 22 1020.3 1021.4 0.4
26/09:00pm 3.0 -3.9 0.4 83 1.0 WNW 26 35 14 19 1020.5 1021.6 0.4
26/08:30pm 3.4 -3.8 0.5 81 1.1 WNW 28 37 15 20 1020.1 1021.2 0.4
26/08:00pm 3.6 -4.9 0.7 81 1.2 WNW 35 46 19 25 1019.2 1020.3 0.4
26/07:30pm 3.7 -4.4 1.3 84 1.0 WNW 33 44 18 24 1018.7 1019.8 0.4
26/07:17pm 3.9 -4.9 1.1 82 1.1 WNW 37 56 20 30 1018.5 1019.6 0.4
26/07:00pm 4.2 -4.6 1.1 80 1.3 WNW 37 50 20 27 1018.1 1019.2 0.4
26/06:30pm 4.2 -4.6 1.2 81 1.2 WNW 37 50 20 27 1017.6 1018.7 0.2
26/06:00pm 4.4 -4.8 1.1 79 1.3 WNW 39 54 21 29 1017.4 1018.5 0.2
26/05:31pm 4.0 -5.2 1.5 84 1.0 W 39 57 21 31 1017.1 1018.2 0.2
26/05:30pm 3.9 -4.9 1.6 85 0.9 W 37 52 20 28 1017.2 1018.3 0.2
26/05:25pm 3.7 -5.4 1.9 88 0.7 W 39 50 21 27 1017.1 1018.2 0.2
26/05:04pm 4.6 -3.6 2.9 89 0.7 W 35 61 19 33 1016.8 1017.8 0.2
26/05:00pm 4.8 -2.7 3.5 91 0.6 WNW 32 43 17 23 1016.7 1017.7 0.2
26/04:30pm 5.0 -3.1 3.5 90 0.6 WNW 35 46 19 25 1016.0 1017.1 0.2
26/04:23pm 4.9 -3.5 3.6 91 0.6 WNW 37 52 20 28 1016.0 1017.1 0.2
26/04:04pm 5.3 -3.5 3.8 90 0.7 WNW 39 59 21 32 1016.0 1017.1 0.0
26/04:02pm 5.4 -3.3 4.1 91 0.6 WNW 39 50 21 27 1016.0 1017.1 0.0
26/04:00pm 5.4 -3.7 4.1 91 0.6 WNW 41 56 22 30 1015.9 1017.0 0.0
26/03:30pm 5.9 -3.6 3.7 86 1.0 WNW 43 61 23 33 1015.5 1016.5 0.0
26/03:24pm 7.0 -0.8 4.8 86 1.0 WNW 35 54 19 29 1015.1 1016.1 0.0
26/03:00pm 7.6 -1.8 4.7 82 1.3 WNW 43 52 23 28 1014.7 1015.8 0.0
26/02:39pm 8.6 -0.4 4.6 76 1.8 WNW 41 56 22 30 1014.2 1015.2 0.0

Other Formats:

Comma delimited format used in spreadsheet applications
http://www.bom.gov.au/fwo/IDN60801/IDN60801.95716.axf

JavaScript Object Notation format (JSON) in row-major order
http://www.bom.gov.au/fwo/IDN60801/IDN60801.95716.json